Grant County, OR

6:50 PM PDT on May 28, 2017 (GMT -0700)
Grant County Regional

Weather History for KGCD - October, 2012

Change the Weather History Date:

Monday, October 8, 2012

  Actual Average (KBNO) Record (KBNO)
Temperature  
Mean Temperature 55 °F -  
Max Temperature 73 °F 64 °F 87 °F (1965)
Min Temperature 37 °F 27 °F 13 °F (1985)
Degree Days  
Heating Degree Days 10    
Growing Degree Days 5 (Base 50)    
Moisture  
Dew Point 13 °F    
Average Humidity 22    
Maximum Humidity 38    
Minimum Humidity 8    
Precipitation  
Precipitation 0.00 in - - ()
Sea Level Pressure  
Sea Level Pressure 29.99 in    
Wind  
Wind Speed 8 mph (SSE)    
Max Wind Speed 14 mph    
Max Gust Speed 18 mph    
Visibility 10 miles    
Events      
Averages and records for this station are not official NWS values.
T = Trace of Precipitation, MM = Missing Value Source: NWS Daily Summary

Daily Weather History Graph

Daily Weather History Graph

Search for Another Location

Airport or City:

Trip Planner

Search our weather history database for the weather conditions in past years. The results will help you decide how hot, cold, wet, or windy it might be!

Date:

Astronomy

Oct. 08, 2012 Rise Set
Actual Time 7:02 AM PDT 6:22 PM PDT
Civil Twilight 6:33 AM PDT 6:51 PM PDT
Nautical Twilight 6:00 AM PDT 7:25 PM PDT
Astronomical Twilight 5:26 AM PDT 7:59 PM PDT
Moon No Moon Rise 2:29 PM PDT (10/8)
Length of Visible Light 12h 18m
Length of Day
11h 19m
Last Quarter, 45% of the Moon is Illuminated
Oct 8
Last Quarter
Oct 15
New
Oct 21
First Quarter
Oct 29
Full
Nov 6
Last Quarter

Hourly Weather History & Observations

Time (PDT) Temp. Windchill Dew Point Humidity Pressure Visibility Wind Dir Wind Speed Gust Speed Precip Events Conditions
12:15 AM 51.8 °F - 12.2 °F 21% 30.03 in 10.0 mi SSE 10.4 mph 17.3 mph N/A   Clear
12:35 AM 50.0 °F - 12.2 °F 22% 30.03 in 10.0 mi SSE 13.8 mph 18.4 mph N/A   Clear
12:55 AM 46.4 °F 41.1 °F 12.2 °F 25% 30.03 in 10.0 mi SSE 11.5 mph - N/A   Clear
1:15 AM 44.6 °F 39.7 °F 12.2 °F 27% 30.03 in 10.0 mi SE 9.2 mph - N/A   Clear
1:35 AM 44.6 °F 40.2 °F 12.2 °F 27% 30.03 in 10.0 mi SE 8.1 mph - N/A   Clear
1:55 AM 41.0 °F 35.8 °F 12.2 °F 31% 30.04 in 10.0 mi SE 8.1 mph - N/A   Clear
2:15 AM 41.0 °F 35.8 °F 14.0 °F 33% 30.04 in 10.0 mi SE 8.1 mph - N/A   Clear
2:35 AM 41.0 °F 34.7 °F 14.0 °F 33% 30.03 in 10.0 mi ESE 10.4 mph - N/A   Clear
2:55 AM 42.8 °F 37.5 °F 14.0 °F 31% 30.02 in 10.0 mi SE 9.2 mph - N/A   Clear
3:35 AM 42.8 °F 36.6 °F 14.0 °F 31% 30.02 in 10.0 mi SE 11.5 mph - N/A   Clear
3:55 AM 42.8 °F 37.5 °F 14.0 °F 31% 30.02 in 10.0 mi SE 9.2 mph - N/A   Clear
4:15 AM 42.8 °F 38.6 °F 14.0 °F 31% 30.02 in 10.0 mi ESE 6.9 mph - N/A   Clear
4:35 AM 41.0 °F 34.7 °F 14.0 °F 33% 30.02 in 10.0 mi ESE 10.4 mph - N/A   Clear
4:55 AM 39.2 °F 32.5 °F 14.0 °F 36% 30.02 in 10.0 mi SE 10.4 mph - N/A   Clear
5:15 AM 37.4 °F 30.8 °F 14.0 °F 38% 30.02 in 10.0 mi SE 9.2 mph - N/A   Clear
5:35 AM 37.4 °F 31.4 °F 14.0 °F 38% 30.02 in 10.0 mi ESE 8.1 mph - N/A   Clear
5:55 AM 37.4 °F 29.8 °F 14.0 °F 38% 30.02 in 10.0 mi SE 11.5 mph - N/A   Clear
6:15 AM 37.4 °F 31.4 °F 14.0 °F 38% 30.01 in 10.0 mi ESE 8.1 mph - N/A   Clear
6:35 AM 39.2 °F 32.5 °F 14.0 °F 36% 30.01 in 10.0 mi ESE 10.4 mph - N/A   Clear
6:55 AM 37.4 °F 30.3 °F 14.0 °F 38% 30.01 in 10.0 mi SE 10.4 mph - N/A   Clear
7:15 AM 37.4 °F 31.4 °F 14.0 °F 38% 30.01 in 10.0 mi East 8.1 mph - N/A   Clear
7:35 AM 37.4 °F 30.3 °F 14.0 °F 38% 30.02 in 10.0 mi ESE 10.4 mph - N/A   Clear
7:55 AM 39.2 °F 33.6 °F 14.0 °F 36% 30.03 in 10.0 mi ESE 8.1 mph - N/A   Clear
8:15 AM 41.0 °F 35.8 °F 14.0 °F 33% 30.03 in 10.0 mi SE 8.1 mph - N/A   Clear
8:35 AM 42.8 °F 40.1 °F 14.0 °F 31% 30.03 in 10.0 mi East 4.6 mph - N/A   Clear
8:55 AM 44.6 °F 42.2 °F 15.8 °F 31% 30.03 in 10.0 mi East 4.6 mph - N/A   Clear
9:15 AM 46.4 °F 45.2 °F 14.0 °F 27% 30.03 in 10.0 mi ESE 3.5 mph - N/A   Clear
9:35 AM 48.2 °F - 15.8 °F 27% 30.03 in 10.0 mi Calm Calm - N/A   Clear
9:55 AM 48.2 °F - 14.0 °F 25% 30.03 in 10.0 mi WNW 3.5 mph - N/A   Clear
10:15 AM 50.0 °F - 15.8 °F 26% 30.02 in 10.0 mi NNW 4.6 mph - N/A   Clear
10:35 AM 50.0 °F - 15.8 °F 26% 30.02 in 10.0 mi Calm Calm - N/A   Clear
10:55 AM 53.6 °F - 15.8 °F 22% 30.01 in 10.0 mi SW 3.5 mph - N/A   Clear
11:15 AM 55.4 °F - 15.8 °F 21% 30.00 in 10.0 mi WNW 3.5 mph - N/A   Clear
11:35 AM 57.2 °F - 17.6 °F 21% 30.00 in 10.0 mi Calm Calm - N/A   Clear
11:55 AM 60.8 °F - 17.6 °F 19% 29.99 in 10.0 mi Calm Calm - N/A   Clear
12:15 PM 60.8 °F - 15.8 °F 17% 29.99 in 10.0 mi Calm Calm - N/A   Clear
12:35 PM 62.6 °F - 15.8 °F 16% 29.98 in 10.0 mi Calm Calm - N/A   Clear
12:55 PM 64.4 °F - 15.8 °F 15% 29.97 in 10.0 mi SE 3.5 mph - N/A   Clear
1:15 PM 68.0 °F - 14.0 °F 12% 29.97 in 10.0 mi WSW 3.5 mph - N/A   Clear
1:35 PM 69.8 °F - 14.0 °F 12% 29.96 in 10.0 mi NW 3.5 mph - N/A   Clear
1:55 PM 69.8 °F - 14.0 °F 12% 29.96 in 10.0 mi Calm Calm - N/A   Clear
2:15 PM 71.6 °F - 10.4 °F 9% 29.95 in 10.0 mi Calm Calm - N/A   Clear
2:35 PM 71.6 °F - 10.4 °F 9% 29.95 in 10.0 mi West 4.6 mph - N/A   Clear
2:55 PM 71.6 °F - 10.4 °F 9% 29.94 in 10.0 mi Calm Calm - N/A   Clear
3:15 PM 71.6 °F - 8.6 °F 9% 29.94 in 10.0 mi West 5.8 mph - N/A   Clear
3:35 PM 73.4 °F - 10.4 °F 9% 29.94 in 10.0 mi WNW 5.8 mph - N/A   Clear
3:55 PM 73.4 °F - 8.6 °F 8% 29.93 in 10.0 mi West 9.2 mph - N/A   Clear
4:15 PM 73.4 °F - 8.6 °F 8% 29.93 in 10.0 mi West 9.2 mph - N/A   Clear
4:35 PM 73.4 °F - 8.6 °F 8% 29.93 in 10.0 mi WSW 11.5 mph - N/A   Clear
4:55 PM 71.6 °F - 8.6 °F 9% 29.93 in 10.0 mi WSW 10.4 mph - N/A   Clear
5:15 PM 69.8 °F - 8.6 °F 9% 29.93 in 10.0 mi WSW 6.9 mph - N/A   Clear
5:35 PM 69.8 °F - 8.6 °F 9% 29.94 in 10.0 mi WNW 6.9 mph - N/A   Clear
5:55 PM 68.0 °F - 10.4 °F 11% 29.94 in 10.0 mi WNW 9.2 mph - N/A   Clear
6:15 PM 64.4 °F - 12.2 °F 13% 29.94 in 10.0 mi NW 5.8 mph - N/A   Clear
6:35 PM 62.6 °F - 10.4 °F 13% 29.94 in 10.0 mi WNW 6.9 mph - N/A   Clear
6:55 PM 64.4 °F - 10.4 °F 12% 29.95 in 10.0 mi WNW 6.9 mph - N/A   Clear
7:15 PM 60.8 °F - 10.4 °F 14% 29.95 in 10.0 mi West 4.6 mph - N/A   Clear
7:35 PM 60.8 °F - 10.4 °F 14% 29.95 in 10.0 mi Calm Calm - N/A   Clear
7:55 PM 59.0 °F - 10.4 °F 15% 29.96 in 10.0 mi SW 3.5 mph - N/A   Clear
8:15 PM 59.0 °F - 10.4 °F 15% 29.97 in 10.0 mi Calm Calm - N/A   Clear
8:55 PM 59.0 °F - 12.2 °F 16% 29.98 in 10.0 mi SW 5.8 mph - N/A   Clear
9:35 PM 55.4 °F - 12.2 °F 18% 30.00 in 10.0 mi Calm Calm - N/A   Clear
9:55 PM 55.4 °F - 12.2 °F 18% 30.00 in 10.0 mi SW 3.5 mph - N/A   Clear
10:15 PM 53.6 °F - 12.2 °F 19% 30.00 in 10.0 mi Calm Calm - N/A   Clear
10:35 PM 50.0 °F - 14.0 °F 24% 30.01 in 10.0 mi East 5.8 mph - N/A   Clear
10:55 PM 48.2 °F - 14.0 °F 25% 30.01 in 10.0 mi East 4.6 mph - N/A   Clear
11:15 PM 48.2 °F - 14.0 °F 25% 30.02 in 10.0 mi East 8.1 mph - N/A   Clear
11:55 PM 46.4 °F 44.3 °F 14.0 °F 27% 30.02 in 10.0 mi East 4.6 mph - N/A   Clear